Location: Baili�vre
(50.0696°N, 4.2409°E)
Time: 08:21:07
(UTC+00:00)

Spot 4 - Pass Details

Date: 08 August 2020
Orbit: 704 x 723 km, 98.3° (Epoch: 27 September)

Event Time Altitude Azimuth Distance (km) Brightness Sun altitude
Exits shadow 23:06:31 45° 235° (SW) 964 4.3 -23.5°
Maximum altitude 23:07:10 49° 260° (W) 924 4.3 -23.5°
Drops below altitude 10° 23:11:52 10° 336° (NNW) 2,207 7.4 -23.6°
Sets 23:14:13 0° 342° (NNW) 3,135 8.6 -23.7°
